When you browse on this site, cookies collect data to enhance your experience and personalize the content and advertising you see.
Visit our Privacy Policy to learn more. By continuing to use the site, you agree to this use of cookies and data.
  • en France
  • Liste des pays
  • À 7 jours
  • Température de l'eau
  • Carte météo
  • Widgets météo
  • user-avatar
    Se connecter

    Météo par heure à Garmisch-Partenkirchen

    Ce jour, 21 Septembre, Samedi

    Heure Température Précipitation Vent Pression Humidité
    00:00 +7°C° 0 mm 1 m/s 679 mmHg 80%
    01:00 +7°C° 0 mm 1 m/s 679 mmHg 75%
    02:00 +7°C° 0 mm 1 m/s 679 mmHg 74%
    03:00 +7°C° 0 mm 1 m/s 679 mmHg 72%
    04:00 +7°C° 0 mm 1 m/s 678 mmHg 71%
    05:00 +8°C° 0 mm 1 m/s 678 mmHg 71%
    06:00 +9°C° 0 mm 1 m/s 679 mmHg 71%
    07:00 +9°C° 0 mm 1 m/s 679 mmHg 70%
    08:00 +13°C° 0 mm 1 m/s 679 mmHg 61%
    09:00 +16°C° 0 mm 1 m/s 680 mmHg 53%
    10:00 +19°C° 0 mm 0 m/s 680 mmHg 44%
    11:00 +22°C° 0 mm 1 m/s 680 mmHg 42%
    12:00 +23°C° 0 mm 1 m/s 680 mmHg 40%
    13:00 +23°C° 0 mm 1 m/s 680 mmHg 38%
    14:00 +23°C° 0 mm 1 m/s 679 mmHg 43%
    15:00 +21°C° 0 mm 2 m/s 679 mmHg 47%
    16:00 +20°C° 0 mm 2 m/s 678 mmHg 52%
    17:00 +18°C° 0 mm 1 m/s 678 mmHg 62%
    18:00 +15°C° 0 mm 1 m/s 677 mmHg 73%
    19:00 +12°C° 0 mm 1 m/s 677 mmHg 84%
    20:00 +12°C° 0 mm 1 m/s 676 mmHg 81%
    21:00 +10°C° 0 mm 2 m/s 676 mmHg 79%
    22:00 +10°C° 0 mm 2 m/s 676 mmHg 77%
    23:00 +10°C° 0 mm 2 m/s 676 mmHg 76%

    Demain, 22 Septembre, Dimanche

    Heure Température Précipitation Vent Pression Humidité
    00:00 +10°C° 0 mm 2 m/s 676 mmHg 75%
    01:00 +10°C° 0 mm 2 m/s 676 mmHg 74%
    02:00 +9°C° 0 mm 2 m/s 676 mmHg 74%
    03:00 +9°C° 0 mm 2 m/s 675 mmHg 74%
    04:00 +9°C° 0 mm 2 m/s 675 mmHg 74%
    05:00 +9°C° 0 mm 2 m/s 675 mmHg 72%
    06:00 +10°C° 0 mm 2 m/s 675 mmHg 69%
    07:00 +10°C° 0 mm 2 m/s 675 mmHg 67%
    08:00 +14°C° 0 mm 1 m/s 675 mmHg 60%
    09:00 +18°C° 0 mm 1 m/s 676 mmHg 54%
    10:00 +20°C° 0 mm 1 m/s 676 mmHg 47%
    11:00 +22°C° 0 mm 1 m/s 676 mmHg 45%
    12:00 +23°C° 0 mm 1 m/s 676 mmHg 43%
    13:00 +24°C° 0 mm 1 m/s 676 mmHg 40%
    14:00 +23°C° 0 mm 1 m/s 676 mmHg 46%
    15:00 +23°C° 0 mm 1 m/s 675 mmHg 51%
    16:00 +22°C° 0 mm 1 m/s 675 mmHg 56%
    17:00 +20°C° 0.2 mm 1 m/s 674 mmHg 66%
    18:00 +18°C° 0.2 mm 1 m/s 674 mmHg 76%
    19:00 +14°C° 0.2 mm 1 m/s 674 mmHg 86%
    20:00 +14°C° 0.2 mm 1 m/s 674 mmHg 86%
    21:00 +14°C° 0.2 mm 1 m/s 674 mmHg 86%
    22:00 +14°C° 0.2 mm 1 m/s 674 mmHg 87%
    23:00 +14°C° 0 mm 1 m/s 674 mmHg 87%

    Après-demain, 23 Septembre, Lundi

    Heure Température Précipitation Vent Pression Humidité
    00:00 +13°C° 0 mm 1 m/s 673 mmHg 88%
    01:00 +13°C° 0 mm 2 m/s 673 mmHg 88%
    02:00 +13°C° 0 mm 1 m/s 673 mmHg 88%
    03:00 +13°C° 0 mm 1 m/s 673 mmHg 87%
    04:00 +13°C° 0 mm 1 m/s 673 mmHg 87%
    05:00 +13°C° 0.5 mm 1 m/s 674 mmHg 90%
    06:00 +12°C° 0.5 mm 2 m/s 674 mmHg 92%
    07:00 +12°C° 0.5 mm 2 m/s 674 mmHg 95%
    08:00 +12°C° 2 mm 2 m/s 674 mmHg 96%
    09:00 +12°C° 2 mm 2 m/s 674 mmHg 96%
    10:00 +10°C° 2 mm 2 m/s 675 mmHg 97%
    11:00 +10°C° 1.8 mm 2 m/s 675 mmHg 97%
    12:00 +11°C° 1.8 mm 1 m/s 675 mmHg 96%
    13:00 +11°C° 1.8 mm 1 m/s 675 mmHg 96%
    14:00 +11°C° 1 mm 1 m/s 675 mmHg 94%
    15:00 +11°C° 1 mm 1 m/s 675 mmHg 93%
    16:00 +10°C° 1 mm 0 m/s 675 mmHg 91%
    17:00 +10°C° 0.1 mm 0 m/s 675 mmHg 92%
    18:00 +9°C° 0.1 mm 0 m/s 675 mmHg 93%
    19:00 +8°C° 0.1 mm 0 m/s 675 mmHg 95%
    20:00 +8°C° 0 mm 1 m/s 675 mmHg 94%
    21:00 +8°C° 0 mm 1 m/s 675 mmHg 94%
    22:00 +8°C° 0 mm 1 m/s 675 mmHg 94%
    23:00 +7°C° 0 mm 1 m/s 675 mmHg 93%

    24 Septembre, Mardi

    Heure Température Précipitation Vent Pression Humidité
    00:00 +7°C° 0 mm 1 m/s 675 mmHg 93%
    01:00 +7°C° 0 mm 1 m/s 675 mmHg 93%
    02:00 +7°C° 0 mm 1 m/s 674 mmHg 92%
    03:00 +6°C° 0 mm 1 m/s 674 mmHg 92%
    04:00 +6°C° 0 mm 1 m/s 674 mmHg 92%
    05:00 +6°C° 0 mm 1 m/s 674 mmHg 91%
    06:00 +7°C° 0 mm 1 m/s 673 mmHg 90%
    07:00 +7°C° 0 mm 1 m/s 673 mmHg 90%
    08:00 +10°C° 0 mm 1 m/s 674 mmHg 80%
    09:00 +13°C° 0 mm 1 m/s 674 mmHg 69%
    10:00 +15°C° 0 mm 0 m/s 674 mmHg 59%
    11:00 +18°C° 0 mm 1 m/s 674 mmHg 53%
    12:00 +20°C° 0 mm 1 m/s 674 mmHg 46%
    13:00 +21°C° 0 mm 1 m/s 674 mmHg 40%
    14:00 +19°C° 0.1 mm 1 m/s 673 mmHg 53%
    15:00 +16°C° 0.1 mm 1 m/s 673 mmHg 66%
    16:00 +14°C° 0.1 mm 1 m/s 672 mmHg 80%
    17:00 +13°C° 0.2 mm 1 m/s 672 mmHg 84%
    18:00 +12°C° 0.2 mm 1 m/s 672 mmHg 88%
    19:00 +10°C° 0.2 mm 0 m/s 672 mmHg 92%
    20:00 +11°C° 0.4 mm 1 m/s 672 mmHg 93%
    21:00 +11°C° 0.4 mm 1 m/s 672 mmHg 93%
    22:00 +10°C° 0.4 mm 2 m/s 672 mmHg 94%
    23:00 +11°C° 0.8 mm 1 m/s 672 mmHg 94%

    25 Septembre, Mercredi

    Heure Température Précipitation Vent Pression Humidité
    00:00 +11°C° 0.8 mm 1 m/s 672 mmHg 95%
    01:00 +11°C° 0.8 mm 1 m/s 672 mmHg 95%
    02:00 +11°C° 0.6 mm 1 m/s 672 mmHg 96%
    03:00 +11°C° 0.6 mm 1 m/s 671 mmHg 96%
    04:00 +10°C° 0.6 mm 1 m/s 671 mmHg 97%
    05:00 +10°C° 1.7 mm 1 m/s 671 mmHg 97%
    06:00 +10°C° 1.7 mm 1 m/s 671 mmHg 97%
    07:00 +10°C° 1.7 mm 1 m/s 671 mmHg 97%
    08:00 +10°C° 1.3 mm 1 m/s 672 mmHg 97%
    09:00 +10°C° 1.3 mm 1 m/s 672 mmHg 96%
    10:00 +8°C° 1.3 mm 2 m/s 672 mmHg 95%
    11:00 +9°C° 0.4 mm 2 m/s 672 mmHg 93%
    12:00 +10°C° 0.4 mm 1 m/s 672 mmHg 90%
    13:00 +10°C° 0.4 mm 1 m/s 672 mmHg 87%
    14:00 +11°C° 0.1 mm 1 m/s 672 mmHg 85%
    15:00 +11°C° 0.1 mm 1 m/s 672 mmHg 83%
    16:00 +11°C° 0.1 mm 1 m/s 672 mmHg 81%
    17:00 +10°C° 0.1 mm 1 m/s 672 mmHg 85%
    18:00 +9°C° 0.1 mm 1 m/s 672 mmHg 90%
    19:00 +7°C° 0.1 mm 0 m/s 672 mmHg 94%
    20:00 +8°C° 0.2 mm 1 m/s 673 mmHg 94%
    21:00 +8°C° 0.2 mm 1 m/s 673 mmHg 95%
    22:00 +8°C° 0.2 mm 1 m/s 673 mmHg 95%
    23:00 +8°C° 0 mm 1 m/s 673 mmHg 95%

    26 Septembre, Jeudi

    Heure Température Précipitation Vent Pression Humidité
    00:00 +8°C° 0 mm 1 m/s 673 mmHg 95%
    01:00 +7°C° 0 mm 1 m/s 673 mmHg 94%
    02:00 +7°C° 0 mm 1 m/s 673 mmHg 94%
    03:00 +7°C° 0 mm 1 m/s 673 mmHg 93%
    04:00 +7°C° 0 mm 1 m/s 673 mmHg 93%
    05:00 +7°C° 0 mm 1 m/s 673 mmHg 92%
    06:00 +8°C° 0 mm 1 m/s 673 mmHg 91%
    07:00 +8°C° 0 mm 1 m/s 673 mmHg 90%
    08:00 +10°C° 0 mm 1 m/s 674 mmHg 81%
    09:00 +13°C° 0 mm 1 m/s 674 mmHg 73%
    10:00 +14°C° 0 mm 0 m/s 675 mmHg 64%
    11:00 +16°C° 0 mm 0 m/s 675 mmHg 58%
    12:00 +19°C° 0 mm 1 m/s 675 mmHg 52%
    13:00 +20°C° 0 mm 1 m/s 675 mmHg 46%
    14:00 +20°C° 0 mm 1 m/s 674 mmHg 48%
    15:00 +19°C° 0 mm 1 m/s 674 mmHg 50%
    16:00 +19°C° 0 mm 1 m/s 674 mmHg 52%
    17:00 +16°C° 0 mm 1 m/s 673 mmHg 62%
    18:00 +14°C° 0 mm 1 m/s 673 mmHg 72%
    19:00 +11°C° 0 mm 1 m/s 673 mmHg 82%
    20:00 +11°C° 0 mm 1 m/s 673 mmHg 81%
    21:00 +11°C° 0 mm 1 m/s 673 mmHg 81%
    22:00 +11°C° 0 mm 1 m/s 673 mmHg 80%
    23:00 +11°C° 0 mm 1 m/s 673 mmHg 78%
    Voir plus